QTR321 OEMA-HESH

Flight info

Callsign QTR321
Flight time N/A
Altitude 41000
Route PEGU1K PEGUR Z712 WEJ L677 SHM
Aircraft A333/H-QTR/L

Departure

Time 2026-04-27 02:44
Airport Prince Mohammad Bin Abdulaziz Airport (OEMA)

Arrival

Time N/A
Airport Sharm El Sheikh International Airport (HESH)
Time Latitude Longitude Altitude Speed Heading
2026-04-27 02:32 24.55891 39.71201 2111 ft 0 kts 79°
2026-04-27 02:35 24.55889 39.71187 2111 ft 2 kts 79°
2026-04-27 02:35 24.55886 39.71169 2113 ft 2 kts 79°
2026-04-27 02:36 24.55882 39.71150 2111 ft 2 kts 79°
2026-04-27 02:36 24.55879 39.71131 2111 ft 3 kts 54°
2026-04-27 02:36 24.55864 39.71117 2113 ft 3 kts
2026-04-27 02:36 24.55857 39.71116 2112 ft 0 kts 353°
2026-04-27 02:37 24.55859 39.71114 2113 ft 2 kts 341°
2026-04-27 02:37 24.55890 39.71100 2112 ft 6 kts 341°
2026-04-27 02:37 24.55953 39.71080 2112 ft 12 kts 346°
2026-04-27 02:38 24.56056 39.71055 2114 ft 18 kts 347°
2026-04-27 02:38 24.56190 39.71028 2117 ft 20 kts 350°
2026-04-27 02:38 24.56320 39.71001 2120 ft 18 kts 348°
2026-04-27 02:38 24.56428 39.70957 2124 ft 14 kts 312°
2026-04-27 02:39 24.56438 39.70886 2122 ft 9 kts 264°
2026-04-27 02:39 24.56441 39.70807 2122 ft 9 kts 295°
2026-04-27 02:39 24.56492 39.70769 2123 ft 10 kts 333°
2026-04-27 02:39 24.56554 39.70752 2124 ft 11 kts 348°
2026-04-27 02:40 24.56639 39.70733 2124 ft 14 kts 348°
2026-04-27 02:40 24.56746 39.70710 2126 ft 17 kts 349°
2026-04-27 02:40 24.56871 39.70682 2127 ft 20 kts 349°
2026-04-27 02:40 24.57012 39.70652 2128 ft 21 kts 349°
2026-04-27 02:41 24.57164 39.70619 2128 ft 23 kts 349°
2026-04-27 02:41 24.57308 39.70588 2130 ft 24 kts 349°
2026-04-27 02:41 24.57445 39.70559 2134 ft 19 kts 349°
2026-04-27 02:41 24.57569 39.70533 2136 ft 18 kts 349°
2026-04-27 02:42 24.57629 39.70511 2137 ft 4 kts 323°
2026-04-27 02:42 24.57642 39.70490 2137 ft 4 kts 300°
2026-04-27 02:42 24.57648 39.70461 2137 ft 4 kts 272°
2026-04-27 02:42 24.57646 39.70422 2138 ft 5 kts 258°
2026-04-27 02:43 24.57628 39.70378 2138 ft 7 kts 235°
2026-04-27 02:43 24.57582 39.70356 2136 ft 9 kts 192°
2026-04-27 02:43 24.57535 39.70357 2135 ft 3 kts 169°
2026-04-27 02:43 24.57277 39.70410 2130 ft 79 kts 169°
2026-04-27 02:44 24.56481 39.70587 2121 ft 152 kts 167°
2026-04-27 02:44 24.55279 39.70890 2423 ft 192 kts 166°
2026-04-27 02:44 24.53949 39.71307 3268 ft 207 kts 156°
2026-04-27 02:44 24.52853 39.72369 4144 ft 218 kts 118°
2026-04-27 02:45 24.52705 39.73956 5142 ft 191 kts 51°
2026-04-27 02:45 24.53563 39.74350 6682 ft 130 kts 345°
2026-04-27 02:45 24.54568 39.73854 6588 ft 192 kts 327°
2026-04-27 02:45 24.55855 39.72886 6343 ft 262 kts 323°
2026-04-27 02:46 24.57437 39.71454 6085 ft 327 kts 316°
2026-04-27 02:46 24.59015 39.69362 5680 ft 380 kts 305°
2026-04-27 02:46 24.60342 39.67021 7543 ft 336 kts 300°
2026-04-27 02:46 24.61373 39.64887 9895 ft 298 kts 293°
2026-04-27 02:47 24.62161 39.62915 11867 ft 266 kts 289°
2026-04-27 02:47 24.62859 39.61153 13696 ft 236 kts 287°
2026-04-27 02:47 24.63592 39.59401 14042 ft 273 kts 292°
2026-04-27 02:47 24.64749 39.57564 14178 ft 315 kts 306°
2026-04-27 02:48 24.66313 39.55700 14364 ft 346 kts 308°
2026-04-27 02:48 24.67978 39.53709 14610 ft 370 kts 308°
2026-04-27 02:48 24.69764 39.51554 14614 ft 395 kts 308°
2026-04-27 02:48 24.71741 39.49164 14293 ft 411 kts 307°
2026-04-27 02:49 24.73616 39.46830 15150 ft 393 kts 307°
2026-04-27 02:49 24.75365 39.44593 14755 ft 381 kts 306°
2026-04-27 02:49 24.77116 39.42344 13563 ft 392 kts 305°
2026-04-27 02:49 24.78869 39.39997 12209 ft 404 kts 306°
2026-04-27 02:50 24.80657 39.37608 11325 ft 405 kts 307°
2026-04-27 02:50 24.82386 39.35309 11437 ft 376 kts 307°
2026-04-27 02:50 24.83924 39.33110 11487 ft 351 kts 303°
2026-04-27 02:50 24.85279 39.30931 11109 ft 342 kts 301°
2026-04-27 02:51 24.86634 39.28747 10245 ft 349 kts 303°
2026-04-27 02:51 24.88016 39.26509 9165 ft 359 kts 302°
2026-04-27 02:51 24.89409 39.24175 7966 ft 370 kts 303°
2026-04-27 02:51 24.90878 39.21810 6790 ft 379 kts 305°
2026-04-27 02:52 24.92369 39.19441 6052 ft 373 kts 305°
2026-04-27 02:52 24.93825 39.17097 5266 ft 368 kts 306°
2026-04-27 02:52 24.94569 39.15971 4961 ft 363 kts 308°
2026-04-27 02:53 24.95356 39.14866 4779 ft 355 kts 309°
2026-04-27 02:53 24.96849 39.12806 4719 ft 331 kts 309°
2026-04-27 02:53 24.98191 39.10869 4747 ft 306 kts 307°
2026-04-27 02:53 24.99416 39.09038 4691 ft 288 kts 307°
2026-04-27 02:54 25.00546 39.07294 4596 ft 271 kts 306°
2026-04-27 02:54 25.01608 39.05639 4633 ft 260 kts 307°
2026-04-27 02:54 25.02663 39.04061 4758 ft 259 kts 307°
2026-04-27 02:54 25.03746 39.02474 4854 ft 260 kts 308°
2026-04-27 02:55 25.04841 39.00877 4972 ft 261 kts 307°
2026-04-27 02:55 25.05939 38.99260 4993 ft 273 kts 307°
2026-04-27 02:55 25.07114 38.97498 4934 ft 297 kts 307°
2026-04-27 02:55 25.08362 38.95585 4834 ft 315 kts 306°
2026-04-27 02:56 25.09649 38.93612 4747 ft 318 kts 306°
2026-04-27 02:56 25.10937 38.91639 4691 ft 316 kts 306°
2026-04-27 02:56 25.12197 38.89708 4616 ft 313 kts 306°
2026-04-27 02:56 25.13465 38.87759 4519 ft 313 kts 306°
2026-04-27 02:57 25.14750 38.85814 4685 ft 316 kts 308°
2026-04-27 02:57 25.16108 38.83895 4825 ft 317 kts 309°
2026-04-27 02:57 25.17479 38.81982 4813 ft 318 kts 308°
2026-04-27 02:57 25.18820 38.80039 4750 ft 318 kts 307°
2026-04-27 02:58 25.20110 38.78062 4712 ft 317 kts 306°
2026-04-27 02:58 25.21367 38.76059 4688 ft 318 kts 306°
2026-04-27 02:58 25.22610 38.74078 4712 ft 318 kts 306°
2026-04-27 02:58 25.23899 38.72097 4756 ft 317 kts 307°
2026-04-27 02:59 25.25214 38.70145 4803 ft 317 kts 308°
2026-04-27 02:59 25.26539 38.68195 4832 ft 318 kts 308°
2026-04-27 02:59 25.27866 38.66240 4868 ft 318 kts 307°
2026-04-27 02:59 25.29189 38.64289 4884 ft 318 kts 307°
2026-04-27 03:00 25.30517 38.62331 4911 ft 318 kts 307°
2026-04-27 03:00 25.31839 38.60380 4954 ft 317 kts 307°
2026-04-27 03:00 25.33132 38.58441 5000 ft 317 kts 307°
2026-04-27 03:00 25.34438 38.56480 5054 ft 317 kts 306°
2026-04-27 03:01 25.35724 38.54498 5083 ft 317 kts 304°
2026-04-27 03:01 25.36944 38.52460 4987 ft 317 kts 304°
2026-04-27 03:01 25.38188 38.50447 4836 ft 317 kts 305°
2026-04-27 03:01 25.39439 38.48447 4675 ft 316 kts 305°
2026-04-27 03:02 25.40690 38.46450 4529 ft 315 kts 306°
2026-04-27 03:02 25.42002 38.44506 4619 ft 316 kts 308°
2026-04-27 03:02 25.43375 38.42653 4705 ft 315 kts 309°
2026-04-27 03:02 25.44754 38.40768 4762 ft 315 kts 307°
2026-04-27 03:03 25.46039 38.38808 4787 ft 315 kts 304°
2026-04-27 03:03 25.48490 38.34773 4808 ft 316 kts 304°
2026-04-27 03:03 25.49711 38.32758 4823 ft 316 kts 304°
2026-04-27 03:04 25.50951 38.30751 4835 ft 316 kts 306°
2026-04-27 03:04 25.52282 38.28817 4878 ft 316 kts 308°
2026-04-27 03:04 25.53657 38.26920 4872 ft 316 kts 309°
2026-04-27 03:04 25.55029 38.25022 4868 ft 316 kts 307°
2026-04-27 03:05 25.56321 38.23059 4852 ft 316 kts 306°
2026-04-27 03:05 25.57579 38.21105 4812 ft 316 kts 306°
2026-04-27 03:05 25.58498 38.19676 4783 ft 315 kts 306°
2026-04-27 03:05 25.58546 38.19602 4784 ft 315 kts 306°
2026-04-27 03:06 25.58591 38.19532 4784 ft 315 kts 306°
2026-04-27 03:06 25.59846 38.17579 4734 ft 316 kts 305°
2026-04-27 03:06 25.61122 38.15594 4702 ft 316 kts 305°
2026-04-27 03:07 25.62396 38.13611 4673 ft 316 kts 305°
2026-04-27 03:07 25.63668 38.11628 4625 ft 316 kts 306°
2026-04-27 03:07 25.64927 38.09671 4582 ft 316 kts 305°
2026-04-27 03:07 25.66204 38.07687 4535 ft 316 kts 305°
2026-04-27 03:08 25.67483 38.05701 4483 ft 316 kts 305°
2026-04-27 03:08 25.68756 38.03719 4464 ft 316 kts 305°
2026-04-27 03:08 25.70030 38.01736 4426 ft 316 kts 305°
2026-04-27 03:08 25.71335 37.99771 4427 ft 316 kts 307°
2026-04-27 03:09 25.72705 37.97863 4459 ft 317 kts 309°
2026-04-27 03:09 25.74056 37.95937 4577 ft 316 kts 304°
2026-04-27 03:09 25.75268 37.93937 4773 ft 317 kts 304°
2026-04-27 03:09 25.76515 37.91911 4965 ft 319 kts 304°
2026-04-27 03:10 25.77785 37.89885 5179 ft 320 kts 305°
2026-04-27 03:10 25.79088 37.87887 5333 ft 320 kts 306°
2026-04-27 03:10 25.80410 37.85891 5450 ft 321 kts 306°
2026-04-27 03:10 25.81732 37.83893 5547 ft 321 kts 305°
2026-04-27 03:11 25.83057 37.81890 5665 ft 322 kts 305°
2026-04-27 03:11 25.84383 37.79885 5764 ft 323 kts 305°
2026-04-27 03:11 25.85711 37.77879 5768 ft 322 kts 305°
2026-04-27 03:11 25.87020 37.75901 5778 ft 322 kts 305°
2026-04-27 03:12 25.88351 37.73888 5782 ft 324 kts 305°
2026-04-27 03:12 25.89672 37.71851 5780 ft 325 kts 304°
2026-04-27 03:12 25.90962 37.69787 5791 ft 326 kts 304°
2026-04-27 03:12 25.92247 37.67714 5770 ft 326 kts 304°
2026-04-27 03:13 25.93539 37.65646 5770 ft 326 kts 304°
2026-04-27 03:13 25.94823 37.63571 5784 ft 326 kts 303°
2026-04-27 03:13 25.96064 37.61528 5798 ft 311 kts 303°
2026-04-27 03:13 25.97260 37.59607 5826 ft 294 kts 304°
2026-04-27 03:14 25.98386 37.57837 5872 ft 273 kts 304°
2026-04-27 03:14 25.99428 37.56176 5945 ft 251 kts 303°
2026-04-27 03:14 26.00337 37.54623 6018 ft 229 kts 301°
2026-04-27 03:14 26.01272 37.53288 6103 ft 210 kts 311°
2026-04-27 03:15 26.02266 37.52202 6132 ft 192 kts 314°
2026-04-27 03:15 26.03122 37.51153 6118 ft 175 kts 303°
2026-04-27 03:15 26.03683 37.50018 6035 ft 162 kts 293°
2026-04-27 03:15 26.04103 37.48883 5876 ft 156 kts 289°
2026-04-27 03:16 26.04441 37.47760 5668 ft 147 kts 284°
2026-04-27 03:16 26.04657 37.46727 5566 ft 131 kts 280°
2026-04-27 03:16 26.04837 37.45718 5217 ft 139 kts 279°
2026-04-27 03:16 26.04990 37.44637 4900 ft 145 kts 277°
2026-04-27 03:17 26.05057 37.43502 4567 ft 150 kts 267°
2026-04-27 03:17 26.04881 37.42332 4239 ft 157 kts 257°
2026-04-27 03:17 26.04542 37.41160 3933 ft 162 kts 250°
2026-04-27 03:17 26.04054 37.40020 3607 ft 164 kts 244°
2026-04-27 03:18 26.03595 37.38729 2453 ft 196 kts 258°
2026-04-27 03:18 26.03542 37.37025 1448 ft 220 kts 274°
2026-04-27 03:18 26.03665 37.35464 1408 ft 189 kts 280°
2026-04-27 03:18 26.04117 37.34179 1141 ft 171 kts 305°
2026-04-27 03:19 26.04849 37.33276 1036 ft 146 kts 315°
2026-04-27 03:19 26.05421 37.32646 1028 ft 81 kts 316°
2026-04-27 03:19 26.05555 37.32502 1030 ft 1 kts 316°
2026-04-27 03:19 26.05596 37.32458 1013 ft 17 kts 316°
2026-04-27 03:20 26.05809 37.32232 1000 ft 80 kts 317°
2026-04-27 03:20 26.06411 37.31606 1065 ft 146 kts 316°
2026-04-27 03:20 26.07074 37.30894 1856 ft 141 kts 315°
2026-04-27 03:20 26.07741 37.30147 2736 ft 132 kts 314°
2026-04-27 03:21 26.08428 37.29317 3139 ft 172 kts 311°
2026-04-27 03:21 26.09292 37.28160 3119 ft 217 kts 308°